This is the latest recevied weather packets stored in our database for station/object NEWPRT. If no packets are shown the sender has not sent any weather packets the latest 10 day(s).
| Time | Temp. | Humidity | Pressure | Rain* | Wind** | Luminosity | Snow |
|---|---|---|---|---|---|---|---|
| 1777480292 | - | 42% | 1025.4 hPa | 0 mm | - | - | - |
| 1777479969 | - | 43% | 1025.6 hPa | 0 mm | - | - | - |
| 1777479646 | - | 41% | 1025.4 hPa | 0 mm | - | - | - |
| 1777479324 | - | 42% | 1025.3 hPa | 0 mm | - | - | - |
| 1777479000 | - | 43% | 1025.1 hPa | 0 mm | - | - | - |
| 1777478677 | - | 44% | 1025.1 hPa | 0 mm | - | - | - |
| 1777478405 | - | 45% | 1025 hPa | 0 mm | - | - | - |
| 1777478354 | - | 45% | 1025 hPa | 0 mm | - | - | - |
| 1777478082 | - | 44% | 1025.4 hPa | 0 mm | - | - | - |
| 1777478031 | - | 44% | 1025.4 hPa | 0 mm | - | - | - |
| 1777477708 | - | 45% | 1025.3 hPa | 0 mm | - | - | - |
| 1777477385 | - | 43% | 1025.4 hPa | 0 mm | - | - | - |
| 1777477062 | - | 45% | 1025.3 hPa | 0 mm | - | - | - |
| 1777476739 | - | 45% | 1025.4 hPa | 0 mm | - | - | - |
| 1777476416 | - | 44% | 1025.4 hPa | 0 mm | - | - | - |
| 1777476093 | - | 43% | 1025.4 hPa | 0 mm | - | - | - |
| 1777475770 | - | 48% | 1025.3 hPa | 0 mm | - | - | - |
| 1777475447 | - | 50% | 1025.3 hPa | 0 mm | - | - | - |
| 1777475125 | - | 50% | 1025.3 hPa | 0 mm | - | - | - |
| 1777474801 | - | 52% | 1025.3 hPa | 0 mm | - | - | - |
| 1777474478 | - | 51% | 1024.8 hPa | 0 mm | - | - | - |
| 1777474155 | - | 55% | 1025.1 hPa | 0 mm | - | - | - |
| 1777473832 | - | 57% | 1025.2 hPa | 0 mm | - | - | - |
| 1777473510 | - | 57% | 1025.1 hPa | 0 mm | - | - | - |
| 1777473186 | - | 58% | 1025 hPa | 0 mm | - | - | - |
* Rain latest hour (hover to see other rain measurements)
** Current wind speed in m/s (hover to see current wind gust speed)